DELTA 1 DEB, 7061

Orbit data source: Space-Track

DELTA 1 DEB, 7061 is space debris in SSO originally from a launch on Tue, 06 Nov 1973 UTC launched from the Air Force Western Test Range (AFWTR). Debris objects in space refer to the collection of defunct objects orbiting the Earth. Examples of debris include non-operational satellites, rocket bodies, and fragments generated from explosions, collisions, or faulty payload assembly.

Loading next visibility...
Identifier
7061, 1973-086BD
Orbit
SSO
Country
Flag of USUS
Related business
Manufacturer
Unknown
Mission
Spacecraft
Bus & Motor
Unknown
Mass
Unknown
Launch date (UTC)
1973-11-06 (52 years ago)
Launch vehicle
Unknown
Launch site
Air Force Western Test Range (AFWTR)
Object type
Payload
Rocket body
Debris
Shape & HBR
Unknown shape, 0.2 m
Radar Cross Section
Medium (>0.1 m² and <1 m²)

Expand to show TLE details & history
Last TLE update: 9 hours ago

TLE from 9 hours ago
0 DELTA 1 DEB
1 07061U 73086BD  25292.92161584  .00000316  00000-0  21304-2 0  9996
2 07061 102.4849 166.3293 0141155  75.3231 298.3936 12.56154896377589
Epoch: 2025-10-19T22:07Z
TLE epoch observation values (Epoch: 2025-10-19T22:07:07.608Z)
Latitude
11.95007°
Longitude
163.2436°
Altitude
1,389.397 km
Speed
7.189 km/s
True Right ascension
10h 54m 37s
True Declination
11° 53' 11"
Sunlit
Object was in daylight at epoch
Visualization orbit readout
Latitude
Unknown
Longitude
Unknown
Altitude
Unknown
Speed
Unknown
Apparent Right ascension
Unknown
Apparent Declination
Unknown
Sunlit
N/A
Visualization observer readout
Local Sidereal Time
01:42:50
Azimuth
Unknown
Elevation
Unknown
Doppler factor
Unknown
Orbital elements
Apogee altitude
1,546.745 km
Perigee altitude
1,326.132 km
Semi-major axis
7,814.575 km
Eccentricity
0.01412
Inclination
102.4849°
RAAN
166.3293°
Arg. of periapsis
75.3231°
True anomaly
296.95878°
Mean anomaly
298.3936°
Eccentric anomaly
297.67738°
Mean motion
3.14185 °/min
Orbital period
114.58 mins
BSTAR
0.0021304
Loading maneuver chart data...
Computing Atmospheric mass density...
Loading historical data...
Loading historical data...
Loading historical data...
Loading historical data...
Loading historical data...
Loading historical data...
Loading historical data...

Documentation

Showing up to 5 results
|